Location: Unspecified
(0.0000°N, 0.0000°E)
Time: 16:23:52
(UTC+00:00)

A-11 Canister half - Visible Passes

Search period start: 19 October 2020 00:00
Search period end: 29 October 2020 00:00
Orbit: 1526 x 1682 km, 47.3° (Epoch: 18 October)

Date Brightness Start Highest point End Pass type
(mag) Time Alt. Az. Time Alt. Az. Time Alt. Az.
19 Oct 10.1 02:36:27 33° SSE 02:36:27 33° SSE 02:41:29 10° SSE visible
19 Oct 10.7 04:36:11 10° SW 04:37:32 10° SW 04:38:53 10° SW visible
20 Oct 10.5 02:16:14 26° SSE 02:16:14 26° SSE 02:19:52 10° SSE visible
20 Oct 10.7 04:14:32 11° SW 04:15:46 11° SW 04:18:42 10° SSW visible
21 Oct 10.8 01:55:55 19° SSE 01:55:55 19° SSE 01:58:15 10° SSE visible
21 Oct 10.7 03:54:14 13° SW 03:54:14 13° SW 03:57:53 10° SSW visible
22 Oct 11.1 01:35:33 14° SSE 01:35:33 14° SSE 01:36:36 10° SE visible
22 Oct 10.7 03:33:51 13° SSW 03:33:51 13° SSW 03:36:52 10° SSW visible
23 Oct 10.8 03:13:25 13° SSW 03:13:25 13° SSW 03:15:44 10° SSW visible
24 Oct 10.9 02:52:55 13° SSW 02:52:55 13° SSW 02:54:30 10° S visible
25 Oct 11.0 02:32:22 12° S 02:32:22 12° S 02:33:14 10° S visible
26 Oct 11.1 02:11:45 10° S 02:11:45 10° S 02:11:55 10° S visible
